EW1104 Weather Reports


time (UTC)temp
C
wind
direction
speed
KPH
gust
KPH
rain 1hr
cm
rain 24hr
cm
rain mn
cm
humidity
%
barometer
mb
20260510180055 23 82 0.0 1.6 0.00 0.05 0.05 67 1013.3
20260510174547 22 84 0.0 1.6 0.00 0.05 0.05 67 1013.3
20260510173046 23 63 0.0 1.6 0.00 0.05 0.05 65 1013.2
20260510171543 22 127 0.0 1.6 0.00 0.05 0.05 69 1013.1
20260510170048 22 101 0.0 3.2 0.00 0.05 0.05 66 1013.3
20260510164548 22 150 0.0 1.6 0.00 0.05 0.05 69 1013.3
20260510163033 21 158 0.0 3.2 0.00 0.05 0.05 76 1013.4
20260510161528 20 270 0.0 4.8 0.00 0.05 0.05 78 1013.5
20260510160024 18 108 0.0 1.6 0.05 0.05 0.05 85 1013.5
20260510154539 17 112 0.0 1.6 0.05 0.05 0.05 92 1013.7
20260510153021 16 118 0.0 1.6 0.05 0.05 0.05 94 1013.7
20260510151515 15 98 0.0 0.0 0.05 0.05 0.05 95 1013.9
20260510150008 13 114 0.0 1.6 0.00 0.00 0.00 94 1013.7
20260510144512 13 84 0.0 1.6 0.00 0.00 0.00 94 1013.8
20260510143006 13 110 0.0 1.6 0.00 0.00 0.00 95 1013.8
20260510141503 12 143 0.0 0.0 0.00 0.00 0.00 95 1013.5
20260510140100 12 97 0.0 0.0 0.00 0.00 0.00 95 1013.5
20260510134607 12 56 0.0 1.6 0.00 0.00 0.00 95 1013.4
20260510133058 12 126 0.0 0.0 0.00 0.00 0.00 95 1013.6
20260510131556 11 126 0.0 0.0 0.00 0.00 0.00 95 1013.6
20260510124554 11 93 0.0 0.0 0.00 0.00 0.00 95 1013.2
20260510123054 11 19 0.0 1.6 0.00 0.00 0.00 95 1013.1
20260510121547 11 88 0.0 1.6 0.00 0.00 0.00 95 1012.7
20260510120045 11 86 0.0 0.0 0.00 0.00 0.00 95 1012.6
20260510114546 11 86 0.0 0.0 0.00 0.00 0.00 95 1012.7
20260510113053 10 86 0.0 0.0 0.00 0.00 0.00 95 1012.7
20260510111543 10 86 0.0 0.0 0.00 0.00 0.00 95 1012.5
20260510110041 10 86 0.0 0.0 0.00 0.00 0.00 95 1012.1
20260510104541 10 86 0.0 0.0 0.00 0.00 0.00 94 1011.8
20260510103039 10 86 0.0 0.0 0.00 0.00 0.00 94 1012.1
20260510101539 9 86 0.0 0.0 0.00 0.00 0.00 94 1012.0
20260510100037 9 77 0.0 0.0 0.00 0.00 0.00 94 1011.9
20260510094538 9 77 0.0 0.0 0.00 0.00 0.00 94 1011.9
20260510093036 9 78 0.0 1.6 0.00 0.00 0.00 94 1012.0
20260510091535 9 70 0.0 1.6 0.00 0.00 0.00 94 1012.0
20260510090034 9 74 0.0 1.6 0.00 0.00 0.00 94 1012.2
20260510084537 8 67 0.0 1.6 0.00 0.00 0.00 94 1012.3
20260510083032 8 92 0.0 1.6 0.00 0.00 0.00 94 1012.1
20260510081530 8 96 0.0 0.0 0.00 0.00 0.00 94 1011.6
20260510080032 8 96 0.0 0.0 0.00 0.00 0.00 94 1011.3
20260510074527 8 96 0.0 0.0 0.00 0.00 0.00 94 1011.3
20260510073029 9 96 0.0 0.0 0.00 0.00 0.00 94 1011.2
20260510071526 9 96 0.0 0.0 0.00 0.00 0.00 94 1011.2
20260510070024 9 96 0.0 0.0 0.00 0.00 0.00 94 1011.3
20260510064538 9 96 0.0 0.0 0.00 0.00 0.00 94 1011.3
20260510063026 9 97 0.0 0.0 0.00 0.00 0.00 94 1011.0
20260510061521 10 97 0.0 0.0 0.00 0.00 0.00 94 1011.0
20260510060019 10 98 0.0 0.0 0.00 0.00 0.00 94 1011.0
20260510054518 10 98 0.0 0.0 0.00 0.00 0.00 94 1011.2
20260510053035 10 97 0.0 0.0 0.00 0.00 0.00 94 1011.2
20260510051514 10 98 0.0 0.0 0.00 0.00 0.00 94 1011.2
20260510050011 11 97 0.0 0.0 0.00 0.00 0.00 94 1011.4
20260510044510 11 98 0.0 0.0 0.00 0.00 0.00 94 1011.4
20260510043009 11 98 0.0 0.0 0.00 0.00 0.00 94 1011.5
20260510041506 11 97 0.0 0.0 0.00 0.00 0.00 94 1011.5
20260510040003 11 97 0.0 0.0 0.00 0.00 0.00 94 1011.5
20260510034503 11 97 0.0 0.0 0.00 0.00 0.00 94 1011.2
20260510033003 10 97 0.0 0.0 0.00 0.00 0.00 94 1011.2
20260510031503 10 97 0.0 0.0 0.00 0.00 0.00 94 1011.1
20260510030002 10 97 0.0 0.0 0.00 0.00 0.00 93 1011.0
20260510024601 10 97 0.0 0.0 0.00 0.00 0.00 93 1011.0
20260510023101 10 97 0.0 0.0 0.00 0.00 0.00 93 1011.0
20260510021605 10 97 0.0 0.0 0.00 0.00 0.00 93 1011.1
20260510020059 10 97 0.0 0.0 0.00 0.00 0.00 93 1011.0
20260510014605 10 98 0.0 0.0 0.00 0.00 0.00 93 1011.0
20260510013130 10 97 0.0 0.0 0.00 0.00 0.00 93 1011.1
20260510011558 10 97 0.0 0.0 0.00 0.00 0.00 93 1011.0
20260510010058 10 98 0.0 0.0 0.00 0.00 0.00 93 1010.8
20260510004555 10 97 0.0 0.0 0.00 0.00 0.00 93 1010.6
20260510003105 11 98 0.0 0.0 0.00 0.00 0.00 93 1010.6
20260510001554 11 98 0.0 0.0 0.00 0.00 0.00 93 1010.5
20260510000114 11 97 0.0 0.0 0.00 0.00 0.00 92 1010.5
20260509234552 11 97 0.0 0.0 0.00 0.00 0.00 92 1010.4
20260509233052 11 98 0.0 0.0 0.00 0.00 0.00 92 1010.3
20260509231553 12 97 0.0 0.0 0.00 0.00 0.00 92 1010.1
20260509230052 12 98 0.0 0.0 0.00 0.00 0.00 92 1010.3
20260509224550 12 98 0.0 0.0 0.00 0.00 0.00 92 1010.5
20260509223049 12 108 0.0 0.0 0.00 0.00 0.00 92 1010.3
20260509221556 12 108 0.0 0.0 0.00 0.00 0.00 91 1010.6
20260509220047 12 108 0.0 0.0 0.00 0.00 0.00 91 1010.8
20260509214558 12 109 0.0 0.0 0.00 0.00 0.00 91 1010.9
20260509213046 12 109 0.0 0.0 0.00 0.00 0.00 89 1010.8
20260509211548 12 109 0.0 0.0 0.00 0.00 0.00 88 1011.0
20260509210048 12 109 0.0 3.2 0.00 0.00 0.00 86 1010.4
20260509204543 13 98 0.0 0.0 0.00 0.00 0.00 85 1010.8
20260509203044 13 98 0.0 1.6 0.00 0.00 0.00 86 1010.5
20260509201544 13 78 0.0 1.6 0.00 0.00 0.00 85 1010.5
20260509200047 13 82 0.0 1.6 0.00 0.00 0.00 85 1010.6
20260509194549 13 64 0.0 1.6 0.00 0.00 0.00 84 1010.8
20260509193040 13 70 0.0 1.6 0.00 0.00 0.00 83 1011.0
20260509191539 14 91 0.0 1.6 0.00 0.00 0.00 82 1011.1
20260509190038 14 91 0.0 1.6 0.00 0.00 0.00 81 1011.1
20260509184538 14 91 0.0 3.2 0.00 0.00 0.00 82 1010.8
20260509183057 14 112 0.0 0.0 0.00 0.00 0.00 83 1011.1
20260509181537 14 120 0.0 1.6 0.00 0.00 0.00 83 1011.1